Year,Month,Day,Hour,Minute,Value (Times are PST for temperature in C)
2018,09,19,00,00,9.20
2018,09,19,00,01,9.20
2018,09,19,00,02,9.20
2018,09,19,00,03,9.20
2018,09,19,00,04,9.20
2018,09,19,00,05,9.20
2018,09,19,00,06,9.20
2018,09,19,00,07,9.20
2018,09,19,00,08,9.20
2018,09,19,00,09,9.20
2018,09,19,00,10,9.20
2018,09,19,00,11,9.20
2018,09,19,00,12,9.20
2018,09,19,00,13,9.20
2018,09,19,00,14,9.20
2018,09,19,00,15,9.20
2018,09,19,00,16,9.20
2018,09,19,00,17,9.20
2018,09,19,00,18,9.20
2018,09,19,00,19,9.20
2018,09,19,00,20,9.10
2018,09,19,00,21,9.10
2018,09,19,00,22,9.10
2018,09,19,00,23,9.10
2018,09,19,00,24,9.10
2018,09,19,00,25,9.10
2018,09,19,00,26,9.10
2018,09,19,00,27,9.10
2018,09,19,00,28,9.10
2018,09,19,00,29,9.10
2018,09,19,00,30,9.10
2018,09,19,00,31,9.10
2018,09,19,00,32,9.10
2018,09,19,00,33,9.10
2018,09,19,00,34,9.10
2018,09,19,00,35,9.10
2018,09,19,00,36,9.10
2018,09,19,00,37,9.10
2018,09,19,00,38,9.10
2018,09,19,00,39,9.10
2018,09,19,00,40,9.10
2018,09,19,00,41,9.10
2018,09,19,00,42,9.10
2018,09,19,00,43,9.10
2018,09,19,00,44,9.10
2018,09,19,00,45,9.00
2018,09,19,00,46,9.00
2018,09,19,00,47,9.00
2018,09,19,00,48,9.00
2018,09,19,00,49,9.00
2018,09,19,00,50,8.90
2018,09,19,00,51,8.90
2018,09,19,00,52,8.90
2018,09,19,00,53,8.90
2018,09,19,00,54,8.90
2018,09,19,00,55,8.90
2018,09,19,00,56,8.90
2018,09,19,00,57,8.90
2018,09,19,00,58,8.90
2018,09,19,00,59,8.90
2018,09,19,01,00,8.90
2018,09,19,01,01,8.90
2018,09,19,01,02,8.90
2018,09,19,01,03,8.90
2018,09,19,01,04,8.80
2018,09,19,01,05,8.80
2018,09,19,01,06,8.80
2018,09,19,01,07,8.80
2018,09,19,01,08,8.80
2018,09,19,01,09,8.80
2018,09,19,01,10,8.80
2018,09,19,01,11,8.80
2018,09,19,01,12,8.80
2018,09,19,01,13,8.80
2018,09,19,01,14,8.80
2018,09,19,01,15,8.80
2018,09,19,01,16,8.80
2018,09,19,01,17,8.80
2018,09,19,01,18,8.80
2018,09,19,01,19,8.70
2018,09,19,01,20,8.80
2018,09,19,01,21,8.70
2018,09,19,01,22,8.70
2018,09,19,01,23,8.80
2018,09,19,01,24,8.80
2018,09,19,01,25,8.70
2018,09,19,01,26,8.70
2018,09,19,01,27,8.70
2018,09,19,01,28,8.70
2018,09,19,01,29,8.70
2018,09,19,01,30,8.70
2018,09,19,01,31,8.70
2018,09,19,01,32,8.70
2018,09,19,01,33,8.70
2018,09,19,01,34,8.70
2018,09,19,01,35,8.70
2018,09,19,01,36,8.70
2018,09,19,01,37,8.70
2018,09,19,01,38,8.70
2018,09,19,01,39,8.70
2018,09,19,01,40,8.70
2018,09,19,01,41,8.70
2018,09,19,01,42,8.70
2018,09,19,01,43,8.70
2018,09,19,01,44,8.60
2018,09,19,01,45,8.60
2018,09,19,01,46,8.60
2018,09,19,01,47,8.60
2018,09,19,01,48,8.60
2018,09,19,01,49,8.60
2018,09,19,01,50,8.60
2018,09,19,01,51,8.60
2018,09,19,01,52,8.60
2018,09,19,01,53,8.60
2018,09,19,01,54,8.60
2018,09,19,01,55,8.60
2018,09,19,01,56,8.60
2018,09,19,01,57,8.60
2018,09,19,01,58,8.60
2018,09,19,01,59,8.50
2018,09,19,02,00,8.50
2018,09,19,02,01,8.50
2018,09,19,02,02,8.50
2018,09,19,02,03,8.50
2018,09,19,02,04,8.50
2018,09,19,02,05,8.50
2018,09,19,02,06,8.50
2018,09,19,02,07,8.50
2018,09,19,02,08,8.50
2018,09,19,02,09,8.50
2018,09,19,02,10,8.50
2018,09,19,02,11,8.50
2018,09,19,02,12,8.50
2018,09,19,02,13,8.50
2018,09,19,02,14,8.50
2018,09,19,02,15,8.40
2018,09,19,02,16,8.40
2018,09,19,02,17,8.40
2018,09,19,02,18,8.40
2018,09,19,02,19,8.40
2018,09,19,02,20,8.40
2018,09,19,02,21,8.40
2018,09,19,02,22,8.40
2018,09,19,02,23,8.30
2018,09,19,02,24,8.30
2018,09,19,02,25,8.30
2018,09,19,02,26,8.30
2018,09,19,02,27,8.30
2018,09,19,02,28,8.30
2018,09,19,02,29,8.30
2018,09,19,02,30,8.30
2018,09,19,02,31,8.30
2018,09,19,02,32,8.30
2018,09,19,02,33,8.30
2018,09,19,02,34,8.30
2018,09,19,02,35,8.30
2018,09,19,02,36,8.30
2018,09,19,02,37,8.30
2018,09,19,02,38,8.30
2018,09,19,02,39,8.30
2018,09,19,02,40,8.30
2018,09,19,02,41,8.30
2018,09,19,02,42,8.30
2018,09,19,02,43,8.20
2018,09,19,02,44,8.20
2018,09,19,02,45,8.20
2018,09,19,02,46,8.20
2018,09,19,02,47,8.20
2018,09,19,02,48,8.20
2018,09,19,02,49,8.20
2018,09,19,02,50,8.20
2018,09,19,02,51,8.20
2018,09,19,02,52,8.20
2018,09,19,02,53,8.20
2018,09,19,02,54,8.20
2018,09,19,02,55,8.20
2018,09,19,02,56,8.20
2018,09,19,02,57,8.20
2018,09,19,02,58,8.20
2018,09,19,02,59,8.20
2018,09,19,03,00,8.20
2018,09,19,03,01,8.20
2018,09,19,03,02,8.20
2018,09,19,03,03,8.20
2018,09,19,03,04,8.20
2018,09,19,03,05,8.20
2018,09,19,03,06,8.20
2018,09,19,03,07,8.20
2018,09,19,03,08,8.10
2018,09,19,03,09,8.10
2018,09,19,03,10,8.10
2018,09,19,03,11,8.10
2018,09,19,03,12,8.00
2018,09,19,03,13,8.00
2018,09,19,03,14,7.90
2018,09,19,03,15,7.90
2018,09,19,03,16,7.90
2018,09,19,03,17,7.80
2018,09,19,03,18,7.80
2018,09,19,03,19,7.80
2018,09,19,03,20,7.70
2018,09,19,03,21,7.70
2018,09,19,03,22,7.70
2018,09,19,03,23,7.70
2018,09,19,03,24,7.70
2018,09,19,03,25,7.60
2018,09,19,03,26,7.70
2018,09,19,03,27,7.60
2018,09,19,03,28,7.60
2018,09,19,03,29,7.60
2018,09,19,03,30,7.60
2018,09,19,03,31,7.60
2018,09,19,03,32,7.60
2018,09,19,03,33,7.60
2018,09,19,03,34,7.60
2018,09,19,03,35,7.60
2018,09,19,03,36,7.60
2018,09,19,03,37,7.60
2018,09,19,03,38,7.60
2018,09,19,03,39,7.60
2018,09,19,03,40,7.60
2018,09,19,03,41,7.70
2018,09,19,03,42,7.70
2018,09,19,03,43,7.70
2018,09,19,03,44,7.70
2018,09,19,03,45,7.70
2018,09,19,03,46,7.70
2018,09,19,03,47,7.70
2018,09,19,03,48,7.70
2018,09,19,03,49,7.70
2018,09,19,03,50,7.70
2018,09,19,03,51,7.70
2018,09,19,03,52,7.70
2018,09,19,03,53,7.70
2018,09,19,03,54,7.70
2018,09,19,03,55,7.70
2018,09,19,03,56,7.70
2018,09,19,03,57,7.70
2018,09,19,03,58,7.70
2018,09,19,03,59,7.70
2018,09,19,04,00,7.80
2018,09,19,04,01,7.70
2018,09,19,04,02,7.70
2018,09,19,04,03,7.70
2018,09,19,04,04,7.70
2018,09,19,04,05,7.70
2018,09,19,04,06,7.70
2018,09,19,04,07,7.70
2018,09,19,04,08,7.70
2018,09,19,04,09,7.70
2018,09,19,04,10,7.70
2018,09,19,04,11,7.70
2018,09,19,04,12,7.70
2018,09,19,04,13,7.70
2018,09,19,04,14,7.70
2018,09,19,04,15,7.70
2018,09,19,04,16,7.60
2018,09,19,04,17,7.60
2018,09,19,04,18,7.60
2018,09,19,04,19,7.60
2018,09,19,04,20,7.50
2018,09,19,04,21,7.50
2018,09,19,04,22,7.50
2018,09,19,04,23,7.50
2018,09,19,04,24,7.50
2018,09,19,04,25,7.50
2018,09,19,04,26,7.50
2018,09,19,04,27,7.50
2018,09,19,04,28,7.50
2018,09,19,04,29,7.50
2018,09,19,04,30,7.40
2018,09,19,04,31,7.40
2018,09,19,04,32,7.40
2018,09,19,04,33,7.40
2018,09,19,04,34,7.40
2018,09,19,04,35,7.40
2018,09,19,04,36,7.30
2018,09,19,04,37,7.30
2018,09,19,04,38,7.30
2018,09,19,04,39,7.30
2018,09,19,04,40,7.30
2018,09,19,04,41,7.30
2018,09,19,04,42,7.30
2018,09,19,04,43,7.30
2018,09,19,04,44,7.30
2018,09,19,04,45,7.30
2018,09,19,04,46,7.30
2018,09,19,04,47,7.30
2018,09,19,04,48,7.30
2018,09,19,04,49,7.30
2018,09,19,04,50,7.30
2018,09,19,04,51,7.30
2018,09,19,04,52,7.30
2018,09,19,04,53,7.30
2018,09,19,04,54,7.30
2018,09,19,04,55,7.30
2018,09,19,04,56,7.30
2018,09,19,04,57,7.20
2018,09,19,04,58,7.20
2018,09,19,04,59,7.20
2018,09,19,05,00,7.20
2018,09,19,05,01,7.20
2018,09,19,05,02,7.20
2018,09,19,05,03,7.20
2018,09,19,05,04,7.20
2018,09,19,05,05,7.20
2018,09,19,05,06,7.20
2018,09,19,05,07,7.20
2018,09,19,05,08,7.20
2018,09,19,05,09,7.20
2018,09,19,05,10,7.20
2018,09,19,05,11,7.20
2018,09,19,05,12,7.20
2018,09,19,05,13,7.20
2018,09,19,05,14,7.10
2018,09,19,05,15,7.10
2018,09,19,05,16,7.10
2018,09,19,05,17,7.10
2018,09,19,05,18,7.10
2018,09,19,05,19,7.10
2018,09,19,05,20,7.10
2018,09,19,05,21,7.10
2018,09,19,05,22,7.00
2018,09,19,05,23,7.00
2018,09,19,05,24,7.00
2018,09,19,05,25,7.00
2018,09,19,05,26,7.00
2018,09,19,05,27,7.00
2018,09,19,05,28,7.00
2018,09,19,05,29,7.00
2018,09,19,05,30,7.00
2018,09,19,05,31,7.00
2018,09,19,05,32,7.00
2018,09,19,05,33,7.00
2018,09,19,05,34,7.00
2018,09,19,05,35,7.00
2018,09,19,05,36,7.00
2018,09,19,05,37,7.00
2018,09,19,05,38,7.00
2018,09,19,05,39,6.90
2018,09,19,05,40,6.90
2018,09,19,05,41,6.90
2018,09,19,05,42,6.90
2018,09,19,05,43,6.90
2018,09,19,05,44,6.90
2018,09,19,05,45,6.90
2018,09,19,05,46,6.90
2018,09,19,05,47,6.90
2018,09,19,05,48,6.90
2018,09,19,05,49,6.90
2018,09,19,05,50,6.90
2018,09,19,05,51,6.90
2018,09,19,05,52,6.80
2018,09,19,05,53,6.80
2018,09,19,05,54,6.80
2018,09,19,05,55,6.80
2018,09,19,05,56,6.80
2018,09,19,05,57,6.80
2018,09,19,05,58,6.80
2018,09,19,05,59,6.80
2018,09,19,06,00,6.80
2018,09,19,06,01,6.80
2018,09,19,06,02,6.80
2018,09,19,06,03,6.80
2018,09,19,06,04,6.80
2018,09,19,06,05,6.70
2018,09,19,06,06,6.70
2018,09,19,06,07,6.70
2018,09,19,06,08,6.70
2018,09,19,06,09,6.70
2018,09,19,06,10,6.70
2018,09,19,06,11,6.70
2018,09,19,06,12,6.70
2018,09,19,06,13,6.70
2018,09,19,06,14,6.70
2018,09,19,06,15,6.70
2018,09,19,06,16,6.70
2018,09,19,06,17,6.60
2018,09,19,06,18,6.60
2018,09,19,06,19,6.60
2018,09,19,06,20,6.60
2018,09,19,06,21,6.60
2018,09,19,06,22,6.60
2018,09,19,06,23,6.60
2018,09,19,06,24,6.60
2018,09,19,06,25,6.60
2018,09,19,06,26,6.60
2018,09,19,06,27,6.60
2018,09,19,06,28,6.50
2018,09,19,06,29,6.50
2018,09,19,06,30,6.40
2018,09,19,06,31,6.40
2018,09,19,06,32,6.40
2018,09,19,06,33,6.40
2018,09,19,06,34,6.30
2018,09,19,06,35,6.30
2018,09,19,06,36,6.40
2018,09,19,06,37,6.40
2018,09,19,06,38,6.40
2018,09,19,06,39,6.40
2018,09,19,06,40,6.40
2018,09,19,06,41,6.40
2018,09,19,06,42,6.50
2018,09,19,06,43,6.50
2018,09,19,06,44,6.50
2018,09,19,06,45,6.50
2018,09,19,06,46,6.50
2018,09,19,06,47,6.50
2018,09,19,06,48,6.50
2018,09,19,06,49,6.50
2018,09,19,06,50,6.60
2018,09,19,06,51,6.60
2018,09,19,06,52,6.60
2018,09,19,06,53,6.60
2018,09,19,06,54,6.50
2018,09,19,06,55,6.50
2018,09,19,06,56,6.50
2018,09,19,06,57,6.50
2018,09,19,06,58,6.50
2018,09,19,06,59,6.50
2018,09,19,07,00,6.50
2018,09,19,07,01,6.50
2018,09,19,07,02,6.50
2018,09,19,07,03,6.50
2018,09,19,07,04,6.40
2018,09,19,07,05,6.40
2018,09,19,07,06,6.40
2018,09,19,07,07,6.40
2018,09,19,07,08,6.40
2018,09,19,07,09,6.40
2018,09,19,07,10,6.40
2018,09,19,07,11,6.40
2018,09,19,07,12,6.40
2018,09,19,07,13,6.40
2018,09,19,07,14,6.40
2018,09,19,07,15,6.40
2018,09,19,07,16,6.40
2018,09,19,07,17,6.40
2018,09,19,07,18,6.40
2018,09,19,07,19,6.40
2018,09,19,07,20,6.30
2018,09,19,07,21,6.30
2018,09,19,07,22,6.30
2018,09,19,07,23,6.30
2018,09,19,07,24,6.30
2018,09,19,07,25,6.30
2018,09,19,07,26,6.40
2018,09,19,07,27,6.40
2018,09,19,07,28,6.40
2018,09,19,07,29,6.40
2018,09,19,07,30,6.40
2018,09,19,07,31,6.40
2018,09,19,07,32,6.40
2018,09,19,07,33,6.40
2018,09,19,07,34,6.40
2018,09,19,07,35,6.40
2018,09,19,07,36,6.40
2018,09,19,07,37,6.40
2018,09,19,07,38,6.40
2018,09,19,07,39,6.50
2018,09,19,07,40,6.50
2018,09,19,07,41,6.50
2018,09,19,07,42,6.50
2018,09,19,07,43,6.60
2018,09,19,07,44,6.60
2018,09,19,07,45,6.60
2018,09,19,07,46,6.70
2018,09,19,07,47,6.70
2018,09,19,07,48,6.70
2018,09,19,07,49,6.80
2018,09,19,07,50,6.80
2018,09,19,07,51,6.80
2018,09,19,07,52,6.90
2018,09,19,07,53,7.00
2018,09,19,07,54,7.10
2018,09,19,07,55,7.20
2018,09,19,07,56,7.30
2018,09,19,07,57,7.30
2018,09,19,07,58,7.40
2018,09,19,07,59,7.50
2018,09,19,08,00,7.60
2018,09,19,08,01,7.70
2018,09,19,08,02,7.80
2018,09,19,08,03,7.90
2018,09,19,08,04,7.90
2018,09,19,08,05,7.90
2018,09,19,08,06,7.90
2018,09,19,08,07,7.90
2018,09,19,08,08,7.90
2018,09,19,08,09,7.90
2018,09,19,08,10,8.00
2018,09,19,08,11,8.00
2018,09,19,08,12,8.00
2018,09,19,08,13,8.10
2018,09,19,08,14,8.10
2018,09,19,08,15,8.20
2018,09,19,08,16,8.20
2018,09,19,08,17,8.20
2018,09,19,08,18,8.30
2018,09,19,08,19,8.30
2018,09,19,08,20,8.30
2018,09,19,08,21,8.40
2018,09,19,08,22,8.40
2018,09,19,08,23,8.40
2018,09,19,08,24,8.50
2018,09,19,08,25,8.60
2018,09,19,08,26,8.60
2018,09,19,08,27,8.70
2018,09,19,08,28,8.80
2018,09,19,08,29,8.90
2018,09,19,08,30,9.00
2018,09,19,08,31,9.10
2018,09,19,08,32,9.20
2018,09,19,08,33,9.30
2018,09,19,08,34,9.30
2018,09,19,08,35,9.30
2018,09,19,08,36,9.40
2018,09,19,08,37,9.40
2018,09,19,08,38,9.40
2018,09,19,08,39,9.50
2018,09,19,08,40,9.60
2018,09,19,08,41,9.60
2018,09,19,08,42,9.60
2018,09,19,08,43,9.60
2018,09,19,08,44,9.70
2018,09,19,08,45,9.70
2018,09,19,08,46,9.80
2018,09,19,08,47,9.90
2018,09,19,08,48,9.90
2018,09,19,08,49,10.00
2018,09,19,08,50,10.10
2018,09,19,08,51,10.20
2018,09,19,08,52,10.30
2018,09,19,08,53,10.50
2018,09,19,08,54,10.60
2018,09,19,08,55,10.70
2018,09,19,08,56,10.80
2018,09,19,08,57,10.90
2018,09,19,08,58,11.10
2018,09,19,08,59,11.20
2018,09,19,09,00,11.30
2018,09,19,09,01,11.40
2018,09,19,09,02,11.40
2018,09,19,09,03,11.50
2018,09,19,09,04,11.60
2018,09,19,09,05,11.60
2018,09,19,09,06,11.60
2018,09,19,09,07,11.60
2018,09,19,09,08,11.70
2018,09,19,09,09,11.70
2018,09,19,09,10,11.80
2018,09,19,09,11,11.80
2018,09,19,09,12,11.80
2018,09,19,09,13,11.80
2018,09,19,09,14,11.90
2018,09,19,09,15,11.90
2018,09,19,09,16,11.90
2018,09,19,09,17,11.90
2018,09,19,09,18,11.90
2018,09,19,09,19,12.00
2018,09,19,09,20,12.00
2018,09,19,09,21,12.00
2018,09,19,09,22,12.10
2018,09,19,09,23,12.10
2018,09,19,09,24,12.20
2018,09,19,09,25,12.30
2018,09,19,09,26,12.40
2018,09,19,09,27,12.40
2018,09,19,09,28,12.50
2018,09,19,09,29,12.60
2018,09,19,09,30,12.70
2018,09,19,09,31,12.80
2018,09,19,09,32,12.90
2018,09,19,09,33,13.00
2018,09,19,09,34,13.10
2018,09,19,09,35,13.20
2018,09,19,09,36,13.20
2018,09,19,09,37,13.20
2018,09,19,09,38,13.20
2018,09,19,09,39,13.20
2018,09,19,09,40,13.20
2018,09,19,09,41,13.20
2018,09,19,09,42,13.20
2018,09,19,09,43,13.20
2018,09,19,09,44,13.30
2018,09,19,09,45,13.40
2018,09,19,09,46,13.40
2018,09,19,09,47,13.40
2018,09,19,09,48,13.40
2018,09,19,09,49,13.40
2018,09,19,09,50,13.50
2018,09,19,09,51,13.50
2018,09,19,09,52,13.50
2018,09,19,09,53,13.60
2018,09,19,09,54,13.60
2018,09,19,09,55,13.60
2018,09,19,09,56,13.60
2018,09,19,09,57,13.70
2018,09,19,09,58,13.80
2018,09,19,09,59,13.90
2018,09,19,10,00,13.90
2018,09,19,10,01,13.90
2018,09,19,10,02,14.00
2018,09,19,10,03,14.00
2018,09,19,10,04,14.00
2018,09,19,10,05,13.90
2018,09,19,10,06,13.90
2018,09,19,10,07,13.80
2018,09,19,10,08,13.70
2018,09,19,10,09,13.70
2018,09,19,10,10,13.70
2018,09,19,10,11,13.70
2018,09,19,10,12,13.70
2018,09,19,10,13,13.60
2018,09,19,10,14,13.60
2018,09,19,10,15,13.60
2018,09,19,10,16,13.60
2018,09,19,10,17,13.70
2018,09,19,10,18,13.70
2018,09,19,10,19,13.70
2018,09,19,10,20,13.80
2018,09,19,10,21,13.80
2018,09,19,10,22,13.90
2018,09,19,10,23,13.90
2018,09,19,10,24,14.00
2018,09,19,10,25,14.00
2018,09,19,10,26,14.00
2018,09,19,10,27,14.10
2018,09,19,10,28,14.10
2018,09,19,10,29,14.10
2018,09,19,10,30,14.00
2018,09,19,10,31,14.00
2018,09,19,10,32,14.00
2018,09,19,10,33,14.10
2018,09,19,10,34,14.10
2018,09,19,10,35,14.30
2018,09,19,10,36,14.30
2018,09,19,10,37,14.40
2018,09,19,10,38,14.50
2018,09,19,10,39,14.60
2018,09,19,10,40,14.60
2018,09,19,10,41,14.60
2018,09,19,10,42,14.60
2018,09,19,10,43,14.70
2018,09,19,10,44,14.70
2018,09,19,10,45,14.70
2018,09,19,10,46,14.70
2018,09,19,10,47,14.70
2018,09,19,10,48,14.70
2018,09,19,10,49,14.70
2018,09,19,10,50,14.70
2018,09,19,10,51,14.70
2018,09,19,10,52,14.80
2018,09,19,10,53,14.80
2018,09,19,10,54,14.90
2018,09,19,10,55,14.90
2018,09,19,10,56,15.00
2018,09,19,10,57,15.00
2018,09,19,10,58,15.00
2018,09,19,10,59,15.10
2018,09,19,11,00,15.20
2018,09,19,11,01,15.30
2018,09,19,11,02,15.40
2018,09,19,11,03,15.50
2018,09,19,11,04,15.60
2018,09,19,11,05,15.60
2018,09,19,11,06,15.70
2018,09,19,11,07,15.70
2018,09,19,11,08,15.70
2018,09,19,11,09,15.60
2018,09,19,11,10,15.50
2018,09,19,11,11,15.40
2018,09,19,11,12,15.30
2018,09,19,11,13,15.20
2018,09,19,11,14,15.10
2018,09,19,11,15,15.10
2018,09,19,11,16,15.00
2018,09,19,11,17,15.00
2018,09,19,11,18,15.10
2018,09,19,11,19,15.20
2018,09,19,11,20,15.30
2018,09,19,11,21,15.40
2018,09,19,11,22,15.50
2018,09,19,11,23,15.60
2018,09,19,11,24,15.70
2018,09,19,11,25,15.60
2018,09,19,11,26,15.60
2018,09,19,11,27,15.50
2018,09,19,11,28,15.40
2018,09,19,11,29,15.30
2018,09,19,11,30,15.20
2018,09,19,11,31,15.20
2018,09,19,11,32,15.20
2018,09,19,11,33,15.20
2018,09,19,11,34,15.30
2018,09,19,11,35,15.40
2018,09,19,11,36,15.40
2018,09,19,11,37,15.40
2018,09,19,11,38,15.40
2018,09,19,11,39,15.30
2018,09,19,11,40,15.20
2018,09,19,11,41,15.20
2018,09,19,11,42,15.30
2018,09,19,11,43,15.30
2018,09,19,11,44,15.30
2018,09,19,11,45,15.40
2018,09,19,11,46,15.50
2018,09,19,11,47,15.50
2018,09,19,11,48,15.50
2018,09,19,11,49,15.40
2018,09,19,11,50,15.40
2018,09,19,11,51,15.40
2018,09,19,11,52,15.50
2018,09,19,11,53,15.60
2018,09,19,11,54,15.70
2018,09,19,11,55,15.80
2018,09,19,11,56,15.80
2018,09,19,11,57,15.90
2018,09,19,11,58,16.00
2018,09,19,11,59,16.00
2018,09,19,12,00,16.00
2018,09,19,12,01,16.00
2018,09,19,12,02,15.90
2018,09,19,12,03,15.90
2018,09,19,12,04,15.90
2018,09,19,12,05,15.90
2018,09,19,12,06,15.90
2018,09,19,12,07,16.00
2018,09,19,12,08,16.10
2018,09,19,12,09,16.10
2018,09,19,12,10,16.10
2018,09,19,12,11,16.20
2018,09,19,12,12,16.20
2018,09,19,12,13,16.30
2018,09,19,12,14,16.30
2018,09,19,12,15,16.40
2018,09,19,12,16,16.30
2018,09,19,12,17,16.30
2018,09,19,12,18,16.30
2018,09,19,12,19,16.20
2018,09,19,12,20,16.30
2018,09,19,12,21,16.30
2018,09,19,12,22,16.40
2018,09,19,12,23,16.40
2018,09,19,12,24,16.40
2018,09,19,12,25,16.40
2018,09,19,12,26,16.40
2018,09,19,12,27,16.40
2018,09,19,12,28,16.40
2018,09,19,12,29,16.50
2018,09,19,12,30,16.50
2018,09,19,12,31,16.50
2018,09,19,12,32,16.50
2018,09,19,12,33,16.50
2018,09,19,12,34,16.50
2018,09,19,12,35,16.50
2018,09,19,12,36,16.50
2018,09,19,12,37,16.60
2018,09,19,12,38,16.70
2018,09,19,12,39,16.80
2018,09,19,12,40,16.80
2018,09,19,12,41,16.80
2018,09,19,12,42,16.80
2018,09,19,12,43,16.90
2018,09,19,12,44,16.90
2018,09,19,12,45,16.90
2018,09,19,12,46,16.90
2018,09,19,12,47,16.90
2018,09,19,12,48,16.90
2018,09,19,12,49,16.80
2018,09,19,12,50,16.70
2018,09,19,12,51,16.70
2018,09,19,12,52,16.70
2018,09,19,12,53,16.70
2018,09,19,12,54,16.80
2018,09,19,12,55,16.70
2018,09,19,12,56,16.70
2018,09,19,12,57,16.70
2018,09,19,12,58,16.60
2018,09,19,12,59,16.60
2018,09,19,13,00,16.60
2018,09,19,13,01,16.70
2018,09,19,13,02,16.70
2018,09,19,13,03,16.80
2018,09,19,13,04,16.90
2018,09,19,13,05,16.90
2018,09,19,13,06,16.90
2018,09,19,13,07,17.00
2018,09,19,13,08,17.00
2018,09,19,13,09,17.10
2018,09,19,13,10,17.00
2018,09,19,13,11,16.90
2018,09,19,13,12,16.90
2018,09,19,13,13,16.70
2018,09,19,13,14,16.60
2018,09,19,13,15,16.50
2018,09,19,13,16,16.30
2018,09,19,13,17,16.20
2018,09,19,13,18,16.10
2018,09,19,13,19,15.90
2018,09,19,13,20,15.90
2018,09,19,13,21,15.80
2018,09,19,13,22,15.70
2018,09,19,13,23,15.70
2018,09,19,13,24,15.70
2018,09,19,13,25,15.70
2018,09,19,13,26,15.80
2018,09,19,13,27,15.80
2018,09,19,13,28,15.80
2018,09,19,13,29,15.80
2018,09,19,13,30,15.80
2018,09,19,13,31,15.90
2018,09,19,13,32,16.00
2018,09,19,13,33,16.00
2018,09,19,13,34,16.10
2018,09,19,13,35,16.20
2018,09,19,13,36,16.20
2018,09,19,13,37,16.20
2018,09,19,13,38,16.20
2018,09,19,13,39,16.20
2018,09,19,13,40,16.20
2018,09,19,13,41,16.20
2018,09,19,13,42,16.20
2018,09,19,13,43,16.20
2018,09,19,13,44,16.20
2018,09,19,13,45,16.20
2018,09,19,13,46,16.30
2018,09,19,13,47,16.30
2018,09,19,13,48,16.30
2018,09,19,13,49,16.30
2018,09,19,13,50,16.30
2018,09,19,13,51,16.20
2018,09,19,13,52,16.20
2018,09,19,13,53,16.10
2018,09,19,13,54,16.10
2018,09,19,13,55,16.00
2018,09,19,13,56,16.00
2018,09,19,13,57,15.90
2018,09,19,13,58,15.80
2018,09,19,13,59,15.70
2018,09,19,14,00,15.70
2018,09,19,14,01,15.70
2018,09,19,14,02,15.70
2018,09,19,14,03,15.60
2018,09,19,14,04,15.70
2018,09,19,14,05,15.70
2018,09,19,14,06,15.60
2018,09,19,14,07,15.60
2018,09,19,14,08,15.60
2018,09,19,14,09,15.60
2018,09,19,14,10,15.60
2018,09,19,14,11,15.60
2018,09,19,14,12,15.60
2018,09,19,14,13,15.60
2018,09,19,14,14,15.70
2018,09,19,14,15,15.70
2018,09,19,14,16,15.70
2018,09,19,14,17,15.80
2018,09,19,14,18,15.80
2018,09,19,14,19,15.90
2018,09,19,14,20,15.90
2018,09,19,14,21,16.00
2018,09,19,14,22,16.00
2018,09,19,14,23,16.00
2018,09,19,14,24,16.10
2018,09,19,14,25,16.10
2018,09,19,14,26,16.10
2018,09,19,14,27,16.20
2018,09,19,14,28,16.20
2018,09,19,14,29,16.30
2018,09,19,14,30,16.30
2018,09,19,14,31,16.30
2018,09,19,14,32,16.30
2018,09,19,14,33,16.30
2018,09,19,14,34,16.30
2018,09,19,14,35,16.40
2018,09,19,14,36,16.40
2018,09,19,14,37,16.40
2018,09,19,14,38,16.40
2018,09,19,14,39,16.40
2018,09,19,14,40,16.40
2018,09,19,14,41,16.50
2018,09,19,14,42,16.50
2018,09,19,14,43,16.40
2018,09,19,14,44,16.40
2018,09,19,14,45,16.40
2018,09,19,14,46,16.30
2018,09,19,14,47,16.30
2018,09,19,14,48,16.20
2018,09,19,14,49,16.20
2018,09,19,14,50,16.10
2018,09,19,14,51,16.00
2018,09,19,14,52,16.00
2018,09,19,14,53,15.90
2018,09,19,14,54,15.80
2018,09,19,14,55,15.80
2018,09,19,14,56,15.80
2018,09,19,14,57,15.70
2018,09,19,14,58,15.70
2018,09,19,14,59,15.60
2018,09,19,15,00,15.50
2018,09,19,15,01,15.50
2018,09,19,15,02,15.50
2018,09,19,15,03,15.50
2018,09,19,15,04,15.50
2018,09,19,15,05,15.50
2018,09,19,15,06,15.50
2018,09,19,15,07,15.60
2018,09,19,15,08,15.60
2018,09,19,15,09,15.70
2018,09,19,15,10,15.70
2018,09,19,15,11,15.70
2018,09,19,15,12,15.70
2018,09,19,15,13,15.80
2018,09,19,15,14,15.80
2018,09,19,15,15,15.80
2018,09,19,15,16,15.80
2018,09,19,15,17,15.80
2018,09,19,15,18,15.80
2018,09,19,15,19,15.80
2018,09,19,15,20,15.80
2018,09,19,15,21,15.80
2018,09,19,15,22,15.70
2018,09,19,15,23,15.70
2018,09,19,15,24,15.70
2018,09,19,15,25,15.70
2018,09,19,15,26,15.70
2018,09,19,15,27,15.60
2018,09,19,15,28,15.60
2018,09,19,15,29,15.60
2018,09,19,15,30,15.60
2018,09,19,15,31,15.60
2018,09,19,15,32,15.60
2018,09,19,15,33,15.60
2018,09,19,15,34,15.70
2018,09,19,15,35,15.70
2018,09,19,15,36,15.70
2018,09,19,15,37,15.70
2018,09,19,15,38,15.80
2018,09,19,15,39,15.80
2018,09,19,15,40,15.90
2018,09,19,15,41,15.90
2018,09,19,15,42,16.00
2018,09,19,15,43,16.10
2018,09,19,15,44,16.10
2018,09,19,15,45,16.10
2018,09,19,15,46,16.10
2018,09,19,15,47,16.10
2018,09,19,15,48,16.10
2018,09,19,15,49,16.10
2018,09,19,15,50,16.00
2018,09,19,15,51,16.00
2018,09,19,15,52,15.90
2018,09,19,15,53,15.90
2018,09,19,15,54,15.90
2018,09,19,15,55,15.90
2018,09,19,15,56,15.90
2018,09,19,15,57,15.90
2018,09,19,15,58,15.90
2018,09,19,15,59,16.00
2018,09,19,16,00,16.00
2018,09,19,16,01,16.00
2018,09,19,16,02,16.10
2018,09,19,16,03,16.10
2018,09,19,16,04,16.10
2018,09,19,16,05,16.20
2018,09,19,16,06,16.20
2018,09,19,16,07,16.10
2018,09,19,16,08,16.10
2018,09,19,16,09,16.10
2018,09,19,16,10,16.10
2018,09,19,16,11,16.10
2018,09,19,16,12,16.10
2018,09,19,16,13,16.10
2018,09,19,16,14,16.10
2018,09,19,16,15,16.10
2018,09,19,16,16,16.10
2018,09,19,16,17,16.10
2018,09,19,16,18,16.10
2018,09,19,16,19,16.00
2018,09,19,16,20,15.90
2018,09,19,16,21,15.90
2018,09,19,16,22,15.80
2018,09,19,16,23,15.80
2018,09,19,16,24,15.80
2018,09,19,16,25,15.70
2018,09,19,16,26,15.70
2018,09,19,16,27,15.70
2018,09,19,16,28,15.70
2018,09,19,16,29,15.70
2018,09,19,16,30,15.70
2018,09,19,16,31,15.70
2018,09,19,16,32,15.70
2018,09,19,16,33,15.70
2018,09,19,16,34,15.70
2018,09,19,16,35,15.70
2018,09,19,16,36,15.70
2018,09,19,16,37,15.70
2018,09,19,16,38,15.70
2018,09,19,16,39,15.70
2018,09,19,16,40,15.70
2018,09,19,16,41,15.70
2018,09,19,16,42,15.80
2018,09,19,16,43,15.80
2018,09,19,16,44,15.80
2018,09,19,16,45,15.80
2018,09,19,16,46,15.80
2018,09,19,16,47,15.80
2018,09,19,16,48,15.80
2018,09,19,16,49,15.80
2018,09,19,16,50,15.80
2018,09,19,16,51,15.80
2018,09,19,16,52,15.80
2018,09,19,16,53,15.70
2018,09,19,16,54,15.70
2018,09,19,16,55,15.80
2018,09,19,16,56,15.80
2018,09,19,16,57,15.80
2018,09,19,16,58,15.80
2018,09,19,16,59,15.80
2018,09,19,17,00,15.80
2018,09,19,17,01,15.80
2018,09,19,17,02,15.80
2018,09,19,17,03,15.90
2018,09,19,17,04,15.90
2018,09,19,17,05,15.90
2018,09,19,17,06,15.90
2018,09,19,17,07,15.90
2018,09,19,17,08,15.90
2018,09,19,17,09,15.90
2018,09,19,17,10,16.00
2018,09,19,17,11,16.00
2018,09,19,17,12,16.10
2018,09,19,17,13,16.10
2018,09,19,17,14,16.10
2018,09,19,17,15,16.10
2018,09,19,17,16,16.10
2018,09,19,17,17,16.20
2018,09,19,17,18,16.20
2018,09,19,17,19,16.20
2018,09,19,17,20,16.20
2018,09,19,17,21,16.20
2018,09,19,17,22,16.30
2018,09,19,17,23,16.30
2018,09,19,17,24,16.30
2018,09,19,17,25,16.30
2018,09,19,17,26,16.30
2018,09,19,17,27,16.30
2018,09,19,17,28,16.40
2018,09,19,17,29,16.40
2018,09,19,17,30,16.50
2018,09,19,17,31,16.50
2018,09,19,17,32,16.60
2018,09,19,17,33,16.60
2018,09,19,17,34,16.60
2018,09,19,17,35,16.60
2018,09,19,17,36,16.60
2018,09,19,17,37,16.60
2018,09,19,17,38,16.60
2018,09,19,17,39,16.60
2018,09,19,17,40,16.60
2018,09,19,17,41,16.60
2018,09,19,17,42,16.70